Starlink 5322

operational
NORAD ID: 55303 Int'l Des: 2023-010 Owner: SPXS Country: US Constellation: starlink
LEOCIRCULAR

About Starlink 5322

Description loading...

Live Position

Loading 3D Globe...

Upcoming Passes

Altitude History

Altitude vs Time

uPlot chart will show altitude changes over time

Two-Line Element Set

1 55303U 23010AL 26062.16648620 -.00000151 00000-0 -48739-5 0 9996
2 55303 69.9996 60.7065 0003051 266.7037 93.3773 14.98328694171803
Epoch: Mar 3, 2026 • Age: 15 hours

Current Status

Altitude 595.3 km
Velocity 7.56 km/s
Sub-Earth Point -69.22°S, 36.9°W
Launch Date Jan 19, 2023
Age 3.1 years
Type internet

Technical Details

Classification Payload
Mass 305.00 kg
Dry Mass 290.00 kg
Total Mass 305.00 kg
Length 0.20 m
Diameter 2.80 m
Span 9.00 m
Shape Box + pan
Manufacturer SPXS
Bus Type Starlink
Phase Status In Orbit
Owner/State SPXS/US

Large Constellations

Loading constellations...